Weather in Povalikhino

Russia / Kostroma Oblast     58°53′25″N   42°50′56″E
temp.,
°C
wind,
m/s
gust,
m/s
humid.,
%
clouds,
%
prec.,
mm/h
press.,
hPa
HPBL,
m
9 march, tue
tue900:00−16n389691 0.1 1008239
03:00−21nnw379890 0.1 1010153
06:00−24nnw2599100 0.0 1012109
09:00−21n249797 0.1 1014256
12:00−17n349298 0.0 1015470
15:00−17n469199 0.1 1016586
18:00−20n3895100 0.1 1018299
21:00−23n3897100 0.1 1021253
10 march, wed
wed1000:00−27n369879 0.0 1022115
03:00−29n269839 0.0 102492
06:00−30nnw23980 0.0 102554
09:00−25nnw25950 0.0 1026201
12:00−17nw24832 0.0 1025401
15:00−14wnw36851 0.0 1025708
18:00−16nw389499 0.1 1025384
21:00−20nw259997 0.1 102695
11 march, thu
thu1100:00−22wnw369966 0.0 102698
03:00−21wnw389873 0.0 1027172
06:00−22wnw3810071 0.0 1027164
09:00−17wnw379681 0.0 1027247
12:00−11wnw369496 0.0 1027353
15:00−8wnw368990 0.0 1026596
18:00−12w239588 0.0 102671
21:00−16w369756 0.0 102795
12 march, fri
fri1200:00−17wsw369838 0.0 1027116
03:00−20wsw369721 0.0 1027127
06:00−20sw310940 0.0 1026205
09:00−15sw388810 0.0 1026304
12:00−10sw487854 0.0 1025495
15:00−8sw487729 0.0 1024594
18:00−12ssw310850 0.0 1024297
21:00−14ssw413880 0.0 1024398
13 march, sat
sat1300:00−15ssw413900 0.0 1024374
03:00−16s413870 0.0 1023391
06:00−16s413880 0.0 1022409
09:00−13s511850 0.0 1020496
12:00−9s5128784 0.0 1019654
15:00−7s6118992 0.1 1018884
18:00−9s41191100 0.1 1017713
21:00−9s41292100 0.2 1016682